Location: Corocito
(10.1894°N, 67.0986°W)
Time: 10:27:12
(UTC+00:00)

Cosmos 1603 - Pass Details

Date: 29 May 2024
Orbit: 829 x 860 km, 71.0° (Epoch: 16 June)

Event Time Altitude Azimuth Distance (km) Brightness Sun altitude
Rises 23:43:16 0° 195° (SSW) 3,368 6.7 -13.7°
Reaches altitude 10° 23:45:41 10° 194° (SSW) 2,437 6.0 -14.2°
Maximum altitude 23:51:17 87° 107° (ESE) 842 3.6 -15.5°
Drops below altitude 10° 23:56:56 10° 17° (NNE) 2,456 6.2 -16.7°
Sets 23:59:23 0° 17° (NNE) 3,396 7.0 -17.2°
